This demonstration page uses our WeatherBlox Daily Observations layout. Learn more.

38.88101, -77.10428

Hourly Observations for June 25, 2019

Temp ( °F °C ) Dew Point ( °F °C ) Humidity (%) Winds ( mph kmh ) Pressure ( in mb ) Visibility ( mi km ) Precip ( " mm )
12:52 am 00:52 Cloudy 76 24.4 72 22.2 88 88 S 7 11 29.79 1009 10 16.0934 0 0
1:52 am 01:52 Cloudy with Thunderstorms 76 24.4 72 22.2 88 88 S 7 11 29.77 1008 10 16.0934 0 0
1:55 am 01:55 Cloudy with Thunderstorms 77 25 72 22.2 85 85 S 6 9 29.77 1008 10 16.0934 0 0
2:10 am 02:10 Cloudy with Light Thunderstorms 77 25 72 22.2 85 85 WSW 12 19 29.8 1009 4 6.43736 0.01 0.254
2:19 am 02:19 Cloudy with Heavy Thunderstorms 76 24.4 72 22.2 88 88 SW 13 20 29.81 1009 3 4.82802 0.05 1.27
2:49 am 02:49 Cloudy with Rain 75 24 72 22 89 89 WNW 5 7 29.8 1009 9 14.48406 0.13 3.302
2:52 am 02:52 Cloudy with Rain 75 23.9 72 22.2 90 90 WNW 6 9 29.8 1009 8 12.87472 0.14 3.556
3:52 am 03:52 Cloudy 75 23.9 71 21.7 88 88 SSW 6 9 29.78 1008 10 16.0934 0.05 1.27
4:52 am 04:52 Cloudy 75 23.9 71 21.7 88 88 VRB 3 6 29.78 1008 10 16.0934 0 0
5:06 am 05:06 Cloudy 75 23.9 71 21.7 88 88 SSW 6 9 29.79 1009 10 16.0934 0 0
5:52 am 05:52 Mostly Cloudy 75 23.9 71 21.7 88 88 SSW 7 11 29.8 1009 10 16.0934 0 0
6:10 am 06:10 Mostly Cloudy 75 23.9 71 21.7 88 88 SW 3 6 29.81 1009 10 16.0934 0 0
6:52 am 06:52 Mostly Cloudy 75 23.9 71 21.7 88 88 WSW 6 9 29.82 1010 10 16.0934 0 0
7:52 am 07:52 Mostly Cloudy 78 25.6 68 20 71 71 VRB 6 9 29.85 1011 10 16.0934 0 0
8:52 am 08:52 Cloudy 78 25.6 66 18.9 67 67 VRB 6 9 29.87 1012 10 16.0934 0 0
9:52 am 09:52 Cloudy 80 26.7 67 19.4 64 64 N 12 19 29.88 1012 10 16.0934 0 0
10:52 am 10:52 Cloudy 83 28.3 67 19.4 59 59 NNW 12 19 29.89 1012 10 16.0934 0 0
11:52 am 11:52 Cloudy 83 28.3 65 18.3 55 55 N 13 20 29.91 1013 10 16.0934 0 0
12:52 pm 12:52 Cloudy 85 29.4 66 18.9 53 53 NW 9 15 29.91 1013 10 16.0934 0 0
1:52 pm 13:52 Cloudy 86 30 68 20 55 55 NNE 9 15 29.9 1012 10 16.0934 0 0
2:52 pm 14:52 Cloudy 87 30.6 65 18.3 48 48 NW 8 13 29.89 1012 10 16.0934 0 0
3:52 pm 15:52 Mostly Cloudy 87 30.6 64 17.8 46 46 W 12 19 29.88 1012 10 16.0934 0 0
4:52 pm 16:52 Mostly Cloudy 90 32.2 62 16.7 39 39 WNW 16 26 29.87 1012 10 16.0934 0 0
5:52 pm 17:52 Mostly Cloudy 87 30.6 61 16.1 42 42 NNW 15 24 29.88 1012 10 16.0934 0 0
7:52 pm 19:52 Mostly Cloudy 84 28.9 60 15.6 44 44 NNW 9 15 29.91 1013 10 16.0934 0 0
8:52 pm 20:52 Mostly Cloudy 84 28.9 59 15 43 43 NW 7 11 29.93 1014 10 16.0934 0 0
9:52 pm 21:52 Mostly Cloudy 82 27.8 59 15 46 46 NW 8 13 29.95 1014 10 16.0934 0 0
10:52 pm 22:52 Mostly Cloudy 81 27.2 59 15 47 47 NW 8 13 29.97 1015 10 16.0934 0 0
11:52 pm 23:52 Mostly Cloudy 79 26.1 60 15.6 52 52 WNW 6 9 29.98 1015 10 16.0934 0 0

Powered by AerisWeather